(164121) 2003 YT1
ephemeris date magn radius delta ra dec elong phase
Today18 Oct 202519.41.434 AU1.552 AU16h51m-62°43'64.2°38.7°
(164121) 2003 YT1 - 2025-10-18
astro.vanbuitenen.nl


 
-1 year
-1 month
-1 day
Now
+1 day
+1 month
+1 year

The interactive orbit chart above shows the body's path through the solar system and its position at the given date. Green and blue lines are shown perpendicular to the ecliptic plane: Green if the path is above the ecliptic plane, blue if it is below. (Left-click and drag to rotate the view; Right-click and drag to move the view; Use scroll wheel to zoom in our out.)

The orbital elements of 2003 YT1 are:

            e (Eccentricity)                : 0.2920383
            a (Semimajor axis)              : 1.1099154
            i (Inclination)                 : 44.05893
            Ω (Longitude of ascending node) : 38.31301
            ω (Argument of perihelion)      : 90.99897
            M (Mean anomaly)                : 43.71860
            Epoch                           : 2025 May 05

            L (Longitude of perihelion)     : -50.29701
            B (Latitude of perihelion)      : 44.05050
            P (Orbital period in years)     : 1.17            
        

The light curve chart below shows the estimated development of the minor planet's magnitude.


The all-sky chart below shows the path of the minor planet over the same period as the light curve. The current position is marked yellow.





The following chart shows the path of the minor planet in the next few days. The field of view is optimized for (~10x50) binoculars and finderscopes.




Ephemerides:
Date       Time       RA (2000)    DEC (2000)    delta   radius  elong  phase   PA    magn
2025-10-18 00:00 UT   16 51 51.2   -62 43 44     1.552    1.434   64.2   38.7   123   19.4 
2025-10-18 05:44 UT   16 53 13.9   -62 43 21     1.553    1.434   64.1   38.7   122   19.4 
2025-10-19 00:00 UT   16 57 37.8   -62 41 50     1.556    1.433   64.0   38.7   122   19.4 
2025-10-20 00:00 UT   17 03 25.0   -62 39 16     1.559    1.433   63.9   38.6   121   19.4 
2025-10-21 00:00 UT   17 09 12.7   -62 36 00     1.562    1.433   63.7   38.5   121   19.4 
2025-10-22 00:00 UT   17 15 00.6   -62 32 03     1.565    1.433   63.6   38.5   120   19.4 
2025-10-23 00:00 UT   17 20 48.4   -62 27 26     1.568    1.432   63.4   38.4   119   19.4 
2025-10-24 00:00 UT   17 26 35.9   -62 22 06     1.571    1.432   63.2   38.3   118   19.4 
2025-10-25 00:00 UT   17 32 22.8   -62 16 06     1.574    1.431   63.1   38.3   118   19.4 
2025-10-26 00:00 UT   17 38 08.9   -62 09 23     1.577    1.431   62.9   38.2   117   19.4 
2025-10-27 00:00 UT   17 43 54.0   -62 01 59     1.580    1.430   62.7   38.2   116   19.5 
2025-10-28 00:00 UT   17 49 37.9   -61 53 54     1.583    1.430   62.6   38.1   116   19.5 
2025-10-29 00:00 UT   17 55 20.3   -61 45 07     1.586    1.429   62.4   38.0   115   19.5 
2025-10-30 00:00 UT   18 01 00.9   -61 35 39     1.589    1.428   62.2   38.0   114   19.5 


    Terminology:
            
    delta:  distance between minor planet and earth in AU
    radius: distance between minor planet and sun in AU
    magn:   magnitude (brightness) estimate    
    ra:     right ascension in hours (24h = 360deg)
    dec:    declination in degrees
    elong:  elongation in degrees (angle sun-earth-minor planet)    
    phase:  phase angle in degrees (angle sun-minor planet-earth)        
    AU:     Astronomical Unit (mean distance between earth and sun: 149597870.7 km
    

Orbital elements provided by the MPC (Minor Planet Center).
Calculations by a modified version of AAPlus, a C# implementation of the AA+ project by PJ Naughter from the algorithms presented in the book "Astronomical Algorithms" by Jean Meeus.
NGC2000 dso catalog and star labels from VizieR as provided by the Strasbourg astronomical Data Center.
Tycho2 catalog from the ESO archive.